Time,TemperatureF,DewpointF,PressureIn,WindDirection,WindDirectionDegrees,WindSpeedMPH,WindSpeedGustMPH,Humidity,HourlyPrecipIn,Conditions,Clouds,dailyrainin,SoftwareType,DateUTC
2013-12-13 00:00:00,50.7,42.4,30.33,NE,34,0.0,0.0,73,0.00,,---,0.00,VWS V14.01,2013-12-13 05:00:00,
2013-12-13 00:01:00,50.7,42.4,30.33,NE,34,0.0,0.0,73,0.00,,---,0.00,VWS V14.01,2013-12-13 05:01:00,
2013-12-13 00:06:00,50.5,42.5,30.33,NE,40,0.0,1.0,74,0.00,,---,0.00,VWS V14.01,2013-12-13 05:06:00,
2013-12-13 00:11:00,50.7,43.1,30.33,NE,40,0.0,1.0,75,0.00,,---,0.00,VWS V14.01,2013-12-13 05:11:00,
2013-12-13 00:16:00,50.7,43.1,30.32,NE,40,0.0,1.0,75,0.00,,---,0.00,VWS V14.01,2013-12-13 05:16:00,
2013-12-13 00:21:00,50.7,43.1,30.32,ENE,71,0.0,1.0,75,0.00,,---,0.00,VWS V14.01,2013-12-13 05:21:00,
2013-12-13 00:26:00,51.0,43.4,30.32,ENE,71,0.0,1.0,75,0.00,,---,0.00,VWS V14.01,2013-12-13 05:26:00,
2013-12-13 00:30:00,49.8,43.6,30.30,ENE,71,0.0,0.0,79,0.00,,---,0.00,VWS V14.01,2013-12-13 05:30:00,
2013-12-13 00:31:00,51.0,43.4,30.32,ENE,71,0.0,0.0,75,0.00,,---,0.00,VWS V14.01,2013-12-13 05:31:00,
2013-12-13 00:36:00,50.8,43.5,30.32,ENE,71,0.0,0.0,76,0.00,,---,0.00,VWS V14.01,2013-12-13 05:36:00,
2013-12-13 00:41:00,50.8,43.5,30.32,ENE,71,0.0,0.0,76,0.00,,---,0.00,VWS V14.01,2013-12-13 05:41:00,
2013-12-13 00:46:00,51.0,43.7,30.31,ENE,71,0.0,0.0,76,0.00,,---,0.00,VWS V14.01,2013-12-13 05:46:00,
2013-12-13 00:51:00,50.8,43.5,30.31,ENE,71,0.0,0.0,76,0.00,,---,0.00,VWS V14.01,2013-12-13 05:51:00,
2013-12-13 00:56:00,50.8,43.9,30.31,ENE,71,0.0,0.0,77,0.00,,---,0.00,VWS V14.01,2013-12-13 05:56:00,
2013-12-13 01:00:00,48.3,43.4,30.30,ENE,71,0.0,0.0,83,0.00,,---,0.00,VWS V14.01,2013-12-13 06:00:00,
2013-12-13 01:01:00,50.7,43.8,30.31,ENE,71,0.0,0.0,77,0.00,,---,0.00,VWS V14.01,2013-12-13 06:01:00,
2013-12-13 01:06:00,50.5,43.6,30.31,ENE,71,0.0,0.0,77,0.00,,---,0.00,VWS V14.01,2013-12-13 06:06:00,
2013-12-13 01:11:00,50.4,43.8,30.31,ENE,71,0.0,0.0,78,0.00,,---,0.00,VWS V14.01,2013-12-13 06:11:00,
2013-12-13 01:16:00,50.4,43.8,30.30,ENE,71,0.0,0.0,78,0.00,,---,0.00,VWS V14.01,2013-12-13 06:16:00,
2013-12-13 01:21:00,50.1,43.8,30.30,ENE,71,0.0,0.0,79,0.00,,---,0.00,VWS V14.01,2013-12-13 06:21:00,
2013-12-13 01:26:00,49.9,43.7,30.30,ENE,71,0.0,0.0,79,0.00,,---,0.00,VWS V14.01,2013-12-13 06:26:00,
2013-12-13 01:30:00,47.4,43.7,30.29,ENE,71,0.0,0.0,87,0.00,,---,0.00,VWS V14.01,2013-12-13 06:30:00,
2013-12-13 01:31:00,49.6,43.4,30.30,ENE,71,0.0,0.0,79,0.00,,---,0.00,VWS V14.01,2013-12-13 06:31:00,
2013-12-13 01:36:00,49.5,43.6,30.30,ENE,71,0.0,0.0,80,0.00,,---,0.00,VWS V14.01,2013-12-13 06:36:00,
2013-12-13 01:41:00,49.2,43.6,30.30,ENE,71,0.0,0.0,81,0.00,,---,0.00,VWS V14.01,2013-12-13 06:41:00,
2013-12-13 01:46:00,49.1,43.8,30.30,ENE,71,0.0,0.0,82,0.00,,---,0.00,VWS V14.01,2013-12-13 06:46:00,
2013-12-13 01:51:00,48.8,43.6,30.30,ENE,71,0.0,0.0,82,0.00,,---,0.00,VWS V14.01,2013-12-13 06:51:00,
2013-12-13 01:56:00,48.5,43.6,30.30,ENE,71,0.0,0.0,83,0.00,,---,0.00,VWS V14.01,2013-12-13 06:56:00,
2013-12-13 02:00:00,47.6,44.5,30.29,ENE,71,0.0,1.0,89,0.00,,---,0.00,VWS V14.01,2013-12-13 07:00:00,
2013-12-13 02:01:00,48.3,43.4,30.30,ENE,71,0.0,0.0,83,0.00,,---,0.00,VWS V14.01,2013-12-13 07:01:00,
2013-12-13 02:05:00,48.0,43.4,30.30,ENE,71,0.0,0.0,84,0.00,,---,0.00,VWS V14.01,2013-12-13 07:05:00,
2013-12-13 02:10:00,47.9,43.6,30.30,ENE,71,0.0,0.0,85,0.00,,---,0.00,VWS V14.01,2013-12-13 07:10:00,
2013-12-13 02:15:00,47.7,43.4,30.29,ENE,71,0.0,0.0,85,0.00,,---,0.00,VWS V14.01,2013-12-13 07:15:00,
2013-12-13 02:20:00,47.6,43.6,30.29,ENE,71,0.0,0.0,86,0.00,,---,0.00,VWS V14.01,2013-12-13 07:20:00,
2013-12-13 02:25:00,47.6,43.6,30.29,ENE,71,0.0,0.0,86,0.00,,---,0.00,VWS V14.01,2013-12-13 07:25:00,
2013-12-13 02:30:00,47.4,43.7,30.29,ENE,71,0.0,0.0,87,0.00,,---,0.00,VWS V14.01,2013-12-13 07:30:00,
2013-12-13 02:35:00,47.4,43.7,30.29,ENE,71,0.0,1.0,87,0.00,,---,0.00,VWS V14.01,2013-12-13 07:35:00,
2013-12-13 02:40:00,47.4,44.0,30.29,ENE,71,0.0,1.0,88,0.00,,---,0.00,VWS V14.01,2013-12-13 07:40:00,
2013-12-13 02:45:00,47.3,43.9,30.29,ENE,71,0.0,1.0,88,0.00,,---,0.00,VWS V14.01,2013-12-13 07:45:00,
2013-12-13 02:50:00,47.3,43.9,30.29,ENE,71,0.0,1.0,88,0.00,,---,0.00,VWS V14.01,2013-12-13 07:50:00,
2013-12-13 02:55:00,47.4,44.3,30.29,ENE,71,0.0,1.0,89,0.00,,---,0.00,VWS V14.01,2013-12-13 07:55:00,
2013-12-13 03:00:00,47.6,44.5,30.29,ENE,71,0.0,1.0,89,0.00,,---,0.00,VWS V14.01,2013-12-13 08:00:00,
2013-12-13 03:05:00,47.7,44.6,30.29,NNW,332,1.0,2.0,89,0.00,,---,0.00,VWS V14.01,2013-12-13 08:05:00,
2013-12-13 03:10:00,47.9,44.8,30.29,NNW,332,0.0,2.0,89,0.00,,---,0.00,VWS V14.01,2013-12-13 08:10:00,
2013-12-13 03:15:00,47.9,44.5,30.29,NNW,332,1.0,2.0,88,0.00,,---,0.00,VWS V14.01,2013-12-13 08:15:00,
2013-12-13 03:20:00,47.9,44.5,30.29,NNW,332,0.0,2.0,88,0.00,,---,0.00,VWS V14.01,2013-12-13 08:20:00,
2013-12-13 03:25:00,47.9,44.5,30.29,NNW,332,0.0,2.0,88,0.00,,---,0.00,VWS V14.01,2013-12-13 08:25:00,
2013-12-13 03:30:00,47.7,44.3,30.29,NNW,332,1.0,1.0,88,0.00,,---,0.00,VWS V14.01,2013-12-13 08:30:00,
2013-12-13 03:35:00,47.7,44.3,30.29,NNW,332,0.0,1.0,88,0.00,,---,0.00,VWS V14.01,2013-12-13 08:35:00,
2013-12-13 03:40:00,47.7,44.0,30.29,NNW,332,0.0,1.0,87,0.00,,---,0.00,VWS V14.01,2013-12-13 08:40:00,
2013-12-13 03:45:00,47.6,43.9,30.29,NNW,332,0.0,1.0,87,0.00,,---,0.00,VWS V14.01,2013-12-13 08:45:00,
2013-12-13 03:50:00,47.6,43.9,30.29,NW,312,0.0,2.0,87,0.00,,---,0.00,VWS V14.01,2013-12-13 08:50:00,
2013-12-13 03:55:00,47.4,43.7,30.29,NW,312,0.0,2.0,87,0.00,,---,0.00,VWS V14.01,2013-12-13 08:55:00,
2013-12-13 04:00:00,47.3,43.6,30.27,NW,312,0.0,0.0,87,0.00,,---,0.00,VWS V14.01,2013-12-13 09:00:00,
2013-12-13 04:05:00,47.0,43.3,30.27,NW,312,0.0,0.0,87,0.00,,---,0.00,VWS V14.01,2013-12-13 09:05:00,
2013-12-13 04:10:00,46.8,43.1,30.27,NW,312,0.0,0.0,87,0.00,,---,0.00,VWS V14.01,2013-12-13 09:10:00,
2013-12-13 04:15:00,46.5,43.1,30.26,NW,312,0.0,0.0,88,0.00,,---,0.00,VWS V14.01,2013-12-13 09:15:00,
2013-12-13 04:20:00,46.4,43.0,30.26,NW,312,0.0,0.0,88,0.00,,---,0.00,VWS V14.01,2013-12-13 09:20:00,
2013-12-13 04:25:00,46.2,43.1,30.26,NW,312,0.0,0.0,89,0.00,,---,0.00,VWS V14.01,2013-12-13 09:25:00,
2013-12-13 04:30:00,46.2,43.1,30.26,NW,312,0.0,0.0,89,0.00,,---,0.00,VWS V14.01,2013-12-13 09:30:00,
2013-12-13 04:35:00,46.2,43.1,30.26,NW,312,0.0,0.0,89,0.00,,---,0.00,VWS V14.01,2013-12-13 09:35:00,
2013-12-13 04:44:00,46.0,43.2,30.26,NW,312,0.0,0.0,90,0.00,,---,0.00,VWS V14.01,2013-12-13 09:44:00,
2013-12-13 04:49:00,46.0,43.2,30.26,NW,312,0.0,0.0,90,0.00,,---,0.00,VWS V14.01,2013-12-13 09:49:00,
2013-12-13 04:54:00,45.8,43.3,30.26,NW,312,0.0,0.0,91,0.00,,---,0.00,VWS V14.01,2013-12-13 09:54:00,
2013-12-13 04:59:00,45.8,43.3,30.26,NW,312,1.0,1.0,91,0.00,,---,0.00,VWS V14.01,2013-12-13 09:59:00,
2013-12-13 05:00:00,46.0,43.8,30.27,NW,312,0.0,2.0,92,0.00,,---,0.00,VWS V14.01,2013-12-13 10:00:00,
2013-12-13 05:04:00,45.8,43.3,30.26,NW,312,0.0,1.0,91,0.00,,---,0.00,VWS V14.01,2013-12-13 10:04:00,
2013-12-13 05:09:00,45.8,43.3,30.26,NW,312,0.0,1.0,91,0.00,,---,0.00,VWS V14.01,2013-12-13 10:09:00,
2013-12-13 05:14:00,45.8,43.6,30.27,NW,312,0.0,1.0,92,0.00,,---,0.00,VWS V14.01,2013-12-13 10:14:00,
2013-12-13 05:19:00,45.8,43.6,30.27,NW,312,0.0,1.0,92,0.00,,---,0.00,VWS V14.01,2013-12-13 10:19:00,
2013-12-13 05:24:00,45.8,43.6,30.27,NW,312,0.0,1.0,92,0.00,,---,0.00,VWS V14.01,2013-12-13 10:24:00,
2013-12-13 05:29:00,45.7,43.5,30.26,NW,312,0.0,1.0,92,0.00,,---,0.00,VWS V14.01,2013-12-13 10:29:00,
2013-12-13 05:30:00,45.7,43.8,30.28,NW,312,0.0,1.0,93,0.00,,---,0.00,VWS V14.01,2013-12-13 10:30:00,
2013-12-13 05:34:00,45.7,43.5,30.26,NW,312,0.0,1.0,92,0.00,,---,0.00,VWS V14.01,2013-12-13 10:34:00,
2013-12-13 05:39:00,45.8,43.9,30.26,NW,312,1.0,2.0,93,0.00,,---,0.00,VWS V14.01,2013-12-13 10:39:00,
2013-12-13 05:44:00,46.0,43.8,30.28,NW,312,0.0,2.0,92,0.00,,---,0.00,VWS V14.01,2013-12-13 10:44:00,
2013-12-13 05:49:00,46.1,43.9,30.28,NW,312,0.0,2.0,92,0.00,,---,0.00,VWS V14.01,2013-12-13 10:49:00,
2013-12-13 05:54:00,46.1,43.9,30.28,NW,312,0.0,2.0,92,0.00,,---,0.00,VWS V14.01,2013-12-13 10:54:00,
2013-12-13 05:59:00,46.0,43.8,30.27,NW,312,0.0,2.0,92,0.00,,---,0.00,VWS V14.01,2013-12-13 10:59:00,
2013-12-13 06:00:00,46.7,45.1,30.29,WNW,296,0.0,2.0,94,0.00,,---,0.00,VWS V14.01,2013-12-13 11:00:00,
2013-12-13 06:04:00,46.0,43.8,30.27,NW,312,0.0,0.0,92,0.00,,---,0.00,VWS V14.01,2013-12-13 11:04:00,
2013-12-13 06:09:00,45.8,43.6,30.27,NW,312,0.0,0.0,92,0.00,,---,0.00,VWS V14.01,2013-12-13 11:09:00,
2013-12-13 06:14:00,45.8,43.6,30.28,NW,312,0.0,1.0,92,0.00,,---,0.00,VWS V14.01,2013-12-13 11:14:00,
2013-12-13 06:19:00,45.7,43.5,30.28,NW,312,0.0,1.0,92,0.00,,---,0.00,VWS V14.01,2013-12-13 11:19:00,
2013-12-13 06:24:00,45.7,43.5,30.28,NW,312,0.0,1.0,92,0.00,,---,0.00,VWS V14.01,2013-12-13 11:24:00,
2013-12-13 06:29:00,45.7,43.8,30.28,NW,312,0.0,1.0,93,0.00,,---,0.00,VWS V14.01,2013-12-13 11:29:00,
2013-12-13 06:30:00,47.3,45.7,30.30,WNW,296,0.0,2.0,94,0.00,,---,0.00,VWS V14.01,2013-12-13 11:30:00,
2013-12-13 06:34:00,45.5,43.6,30.28,NW,312,0.0,1.0,93,0.00,,---,0.00,VWS V14.01,2013-12-13 11:34:00,
2013-12-13 06:39:00,45.7,43.8,30.28,NW,312,0.0,1.0,93,0.00,,---,0.00,VWS V14.01,2013-12-13 11:39:00,
2013-12-13 06:44:00,45.8,43.9,30.28,NW,312,0.0,1.0,93,0.00,,---,0.00,VWS V14.01,2013-12-13 11:44:00,
2013-12-13 06:49:00,46.1,44.5,30.28,NW,312,0.0,1.0,94,0.00,,---,0.00,VWS V14.01,2013-12-13 11:49:00,
2013-12-13 06:54:00,46.4,44.8,30.28,WNW,296,0.0,2.0,94,0.00,,---,0.00,VWS V14.01,2013-12-13 11:54:00,
2013-12-13 06:59:00,46.7,45.1,30.29,WNW,296,1.0,2.0,94,0.00,,---,0.00,VWS V14.01,2013-12-13 11:59:00,
2013-12-13 07:00:00,48.6,46.7,30.32,WNW,282,1.0,5.0,93,0.00,,---,0.00,VWS V14.01,2013-12-13 12:00:00,
2013-12-13 07:04:00,46.7,45.1,30.29,WNW,296,0.0,1.0,94,0.00,,---,0.00,VWS V14.01,2013-12-13 12:04:00,
2013-12-13 07:09:00,46.8,45.2,30.29,WNW,296,0.0,1.0,94,0.00,,---,0.00,VWS V14.01,2013-12-13 12:09:00,
2013-12-13 07:14:00,46.8,45.2,30.29,WNW,296,0.0,2.0,94,0.00,,---,0.00,VWS V14.01,2013-12-13 12:14:00,
2013-12-13 07:19:00,47.0,45.4,30.29,WNW,296,1.0,2.0,94,0.00,,---,0.00,VWS V14.01,2013-12-13 12:19:00,
2013-12-13 07:24:00,47.1,45.5,30.29,WNW,296,2.0,2.0,94,0.00,,---,0.00,VWS V14.01,2013-12-13 12:24:00,
2013-12-13 07:29:00,47.3,45.7,30.30,WNW,296,1.0,2.0,94,0.00,,---,0.00,VWS V14.01,2013-12-13 12:29:00,
2013-12-13 07:30:00,51.1,48.3,30.33,WNW,284,1.0,4.0,90,0.00,,---,0.00,VWS V14.01,2013-12-13 12:30:00,
2013-12-13 07:34:00,47.4,45.8,30.30,WNW,296,1.0,2.0,94,0.00,,---,0.00,VWS V14.01,2013-12-13 12:34:00,
2013-12-13 07:39:00,47.6,46.0,30.30,WNW,294,1.0,2.0,94,0.00,,---,0.00,VWS V14.01,2013-12-13 12:39:00,
2013-12-13 07:44:00,47.7,46.1,30.31,WNW,288,1.0,5.0,94,0.00,,---,0.00,VWS V14.01,2013-12-13 12:44:00,
2013-12-13 07:49:00,47.9,46.3,30.31,WNW,288,2.0,5.0,94,0.00,,---,0.00,VWS V14.01,2013-12-13 12:49:00,
2013-12-13 07:54:00,48.2,46.6,30.31,WNW,288,2.0,5.0,94,0.00,,---,0.00,VWS V14.01,2013-12-13 12:54:00,
2013-12-13 07:59:00,48.6,46.7,30.32,WNW,282,1.0,5.0,93,0.00,,---,0.00,VWS V14.01,2013-12-13 12:59:00,
2013-12-13 08:00:00,53.2,49.7,30.33,West,277,1.0,3.0,88,0.00,,---,0.00,VWS V14.01,2013-12-13 13:00:00,
2013-12-13 08:04:00,48.9,47.0,30.32,WNW,282,0.0,2.0,93,0.00,,---,0.00,VWS V14.01,2013-12-13 13:04:00,
2013-12-13 08:09:00,49.4,47.5,30.32,West,277,1.0,4.0,93,0.00,,---,0.00,VWS V14.01,2013-12-13 13:09:00,
2013-12-13 08:14:00,49.8,47.6,30.32,West,274,1.0,4.0,92,0.00,,---,0.00,VWS V14.01,2013-12-13 13:14:00,
2013-12-13 08:19:00,50.2,48.0,30.32,WNW,302,1.0,4.0,92,0.00,,---,0.00,VWS V14.01,2013-12-13 13:19:00,
2013-12-13 08:24:00,50.7,48.2,30.32,NW,304,1.0,4.0,91,0.00,,---,0.00,VWS V14.01,2013-12-13 13:24:00,
2013-12-13 08:29:00,51.1,48.3,30.33,WNW,284,1.0,4.0,90,0.00,,---,0.00,VWS V14.01,2013-12-13 13:29:00,
2013-12-13 08:30:00,54.4,50.6,30.33,West,281,1.0,2.0,87,0.00,,---,0.00,VWS V14.01,2013-12-13 13:30:00,
2013-12-13 08:34:00,51.3,48.2,30.33,WNW,284,3.0,3.0,89,0.00,,---,0.00,VWS V14.01,2013-12-13 13:34:00,
2013-12-13 08:39:00,51.6,48.2,30.33,WNW,282,0.0,3.0,88,0.00,,---,0.00,VWS V14.01,2013-12-13 13:39:00,
2013-12-13 08:44:00,52.0,48.6,30.33,West,280,2.0,3.0,88,0.00,,---,0.00,VWS V14.01,2013-12-13 13:44:00,
2013-12-13 08:49:00,52.3,48.9,30.33,WNW,284,2.0,3.0,88,0.00,,---,0.00,VWS V14.01,2013-12-13 13:49:00,
2013-12-13 08:54:00,52.8,49.3,30.33,WNW,288,0.0,3.0,88,0.00,,---,0.00,VWS V14.01,2013-12-13 13:54:00,
2013-12-13 08:58:00,53.2,49.7,30.33,West,277,1.0,3.0,88,0.00,,---,0.00,VWS V14.01,2013-12-13 13:58:00,
2013-12-13 09:00:00,54.4,50.6,30.34,West,281,1.0,1.0,87,0.00,,---,0.00,VWS V14.01,2013-12-13 14:00:00,
2013-12-13 09:03:00,53.5,50.0,30.33,West,277,0.0,1.0,88,0.00,,---,0.00,VWS V14.01,2013-12-13 14:03:00,
2013-12-13 09:08:00,53.8,50.0,30.33,West,277,2.0,2.0,87,0.00,,---,0.00,VWS V14.01,2013-12-13 14:08:00,
2013-12-13 09:13:00,54.4,50.6,30.33,West,281,1.0,2.0,87,0.00,,---,0.00,VWS V14.01,2013-12-13 14:13:00,
2013-12-13 09:18:00,54.4,50.6,30.33,West,281,1.0,2.0,87,0.00,,---,0.00,VWS V14.01,2013-12-13 14:18:00,
2013-12-13 09:23:00,54.4,50.6,30.33,West,281,1.0,2.0,87,0.00,,---,0.00,VWS V14.01,2013-12-13 14:23:00,
2013-12-13 09:28:00,54.4,50.6,30.33,West,281,1.0,2.0,87,0.00,,---,0.00,VWS V14.01,2013-12-13 14:28:00,
2013-12-13 09:30:00,54.4,50.6,30.34,West,281,1.0,1.0,87,0.00,,---,0.00,VWS V14.01,2013-12-13 14:30:00,
2013-12-13 09:33:00,54.4,50.6,30.33,West,281,1.0,1.0,87,0.00,,---,0.00,VWS V14.01,2013-12-13 14:33:00,
2013-12-13 09:38:00,54.4,50.6,30.33,West,281,1.0,1.0,87,0.00,,---,0.00,VWS V14.01,2013-12-13 14:38:00,
2013-12-13 09:43:00,54.4,50.6,30.34,West,281,1.0,1.0,87,0.00,,---,0.00,VWS V14.01,2013-12-13 14:43:00,
2013-12-13 09:48:00,54.4,50.6,30.34,West,281,1.0,1.0,87,0.00,,---,0.00,VWS V14.01,2013-12-13 14:48:00,
2013-12-13 09:53:00,54.4,50.6,30.34,West,281,1.0,1.0,87,0.00,,---,0.00,VWS V14.01,2013-12-13 14:53:00,
2013-12-13 09:58:00,54.4,50.6,30.34,West,281,1.0,1.0,87,0.00,,---,0.00,VWS V14.01,2013-12-13 14:58:00,
2013-12-13 10:00:00,61.3,53.0,30.34,NNW,346,2.0,6.0,74,0.00,,---,0.00,VWS V14.01,2013-12-13 15:00:00,
2013-12-13 10:03:00,54.4,50.6,30.34,West,281,1.0,1.0,87,0.00,,---,0.00,VWS V14.01,2013-12-13 15:03:00,
2013-12-13 10:08:00,54.4,50.6,30.34,West,281,1.0,1.0,87,0.00,,---,0.00,VWS V14.01,2013-12-13 15:08:00,
2013-12-13 10:13:00,54.4,50.6,30.34,West,281,1.0,1.0,87,0.00,,---,0.00,VWS V14.01,2013-12-13 15:13:00,
2013-12-13 10:18:00,54.4,50.6,30.34,West,281,1.0,1.0,87,0.00,,---,0.00,VWS V14.01,2013-12-13 15:18:00,
2013-12-13 10:23:00,54.4,50.6,30.34,West,281,1.0,1.0,87,0.00,,---,0.00,VWS V14.01,2013-12-13 15:23:00,
2013-12-13 10:28:00,54.4,50.6,30.34,West,281,1.0,1.0,87,0.00,,---,0.00,VWS V14.01,2013-12-13 15:28:00,
2013-12-13 10:30:00,62.6,53.1,30.32,North,357,1.0,7.0,71,0.00,,---,0.00,VWS V14.01,2013-12-13 15:30:00,
2013-12-13 10:33:00,60.1,52.2,30.34,NNW,340,1.0,3.0,75,0.00,,---,0.00,VWS V14.01,2013-12-13 15:33:00,
2013-12-13 10:38:00,60.4,52.5,30.34,North,357,1.0,4.0,75,0.00,,---,0.00,VWS V14.01,2013-12-13 15:38:00,
2013-12-13 10:43:00,60.5,52.5,30.34,WNW,298,1.0,4.0,75,0.00,,---,0.00,VWS V14.01,2013-12-13 15:43:00,
2013-12-13 10:48:00,60.5,52.2,30.34,NW,326,2.0,6.0,74,0.00,,---,0.00,VWS V14.01,2013-12-13 15:48:00,
2013-12-13 10:53:00,60.9,52.9,30.34,North,353,1.0,6.0,75,0.00,,---,0.00,VWS V14.01,2013-12-13 15:53:00,
2013-12-13 10:58:00,61.2,53.2,30.34,NNW,347,1.0,6.0,75,0.00,,---,0.00,VWS V14.01,2013-12-13 15:58:00,
2013-12-13 11:00:00,63.2,52.9,30.32,West,277,2.0,4.0,69,0.00,,---,0.00,VWS V14.01,2013-12-13 16:00:00,
2013-12-13 11:03:00,61.6,52.9,30.34,NW,311,3.0,3.0,73,0.00,,---,0.00,VWS V14.01,2013-12-13 16:03:00,
2013-12-13 11:08:00,61.8,52.3,30.34,NNW,337,2.0,7.0,71,0.00,,---,0.00,VWS V14.01,2013-12-13 16:08:00,
2013-12-13 11:13:00,61.6,52.5,30.34,NW,304,2.0,7.0,72,0.00,,---,0.00,VWS V14.01,2013-12-13 16:13:00,
2013-12-13 11:18:00,62.0,53.3,30.33,NNW,346,1.0,7.0,73,0.00,,---,0.00,VWS V14.01,2013-12-13 16:18:00,
2013-12-13 11:23:00,62.3,53.2,30.33,NNW,337,1.0,7.0,72,0.00,,---,0.00,VWS V14.01,2013-12-13 16:23:00,
2013-12-13 11:28:00,62.6,53.5,30.33,NNE,20,2.0,7.0,72,0.00,,---,0.00,VWS V14.01,2013-12-13 16:28:00,
2013-12-13 11:30:00,63.7,53.7,30.30,NNE,16,2.0,4.0,70,0.00,,---,0.00,VWS V14.01,2013-12-13 16:30:00,
2013-12-13 11:33:00,62.7,53.2,30.32,NW,325,1.0,3.0,71,0.00,,---,0.00,VWS V14.01,2013-12-13 16:33:00,
2013-12-13 11:38:00,62.7,52.8,30.32,NNW,330,1.0,4.0,70,0.00,,---,0.00,VWS V14.01,2013-12-13 16:38:00,
2013-12-13 11:43:00,62.7,52.4,30.32,NNE,18,2.0,4.0,69,0.00,,---,0.00,VWS V14.01,2013-12-13 16:43:00,
2013-12-13 11:48:00,62.7,53.5,30.32,West,274,2.0,4.0,72,0.00,,---,0.00,VWS V14.01,2013-12-13 16:48:00,
2013-12-13 11:53:00,63.2,53.3,30.32,North,4,1.0,4.0,70,0.00,,---,0.00,VWS V14.01,2013-12-13 16:53:00,
2013-12-13 11:58:00,63.2,52.9,30.32,NW,319,3.0,4.0,69,0.00,,---,0.00,VWS V14.01,2013-12-13 16:58:00,
2013-12-13 12:00:00,64.3,53.9,30.28,NW,319,1.0,6.0,69,0.00,,---,0.00,VWS V14.01,2013-12-13 17:00:00,
2013-12-13 12:03:00,63.5,53.2,30.32,NW,313,2.0,4.0,69,0.00,,---,0.00,VWS V14.01,2013-12-13 17:03:00,
2013-12-13 12:08:00,63.9,53.5,30.32,NW,315,1.0,4.0,69,0.00,,---,0.00,VWS V14.01,2013-12-13 17:08:00,
2013-12-13 12:13:00,63.9,53.5,30.32,North,0,2.0,4.0,69,0.00,,---,0.00,VWS V14.01,2013-12-13 17:13:00,
2013-12-13 12:18:00,63.7,53.7,30.31,NW,325,0.0,4.0,70,0.00,,---,0.00,VWS V14.01,2013-12-13 17:18:00,
2013-12-13 12:23:00,63.7,53.7,30.31,NW,325,0.0,4.0,70,0.00,,---,0.00,VWS V14.01,2013-12-13 17:23:00,
2013-12-13 12:28:00,63.7,53.7,30.31,NNE,16,2.0,4.0,70,0.00,,---,0.00,VWS V14.01,2013-12-13 17:28:00,
2013-12-13 12:30:00,65.3,53.7,30.26,North,357,0.0,3.0,66,0.02,,---,0.02,VWS V14.01,2013-12-13 17:30:00,
2013-12-13 12:33:00,64.0,54.0,30.30,North,1,1.0,2.0,70,0.00,,---,0.00,VWS V14.01,2013-12-13 17:33:00,
2013-12-13 12:38:00,64.2,53.4,30.30,East,80,2.0,5.0,68,0.00,,---,0.00,VWS V14.01,2013-12-13 17:38:00,
2013-12-13 12:43:00,64.0,53.2,30.30,NNE,17,5.0,5.0,68,0.00,,---,0.00,VWS V14.01,2013-12-13 17:43:00,
2013-12-13 12:48:00,63.9,53.1,30.28,North,0,4.0,5.0,68,0.00,,---,0.00,VWS V14.01,2013-12-13 17:48:00,
2013-12-13 12:53:00,63.9,53.1,30.28,ENE,71,3.0,5.0,68,0.00,,---,0.00,VWS V14.01,2013-12-13 17:53:00,
2013-12-13 12:58:00,64.0,54.0,30.28,North,10,1.0,6.0,70,0.00,,---,0.00,VWS V14.01,2013-12-13 17:58:00,
2013-12-13 13:00:00,66.1,54.0,30.25,North,3,2.0,3.0,65,0.02,,---,0.02,VWS V14.01,2013-12-13 18:00:00,
2013-12-13 13:03:00,64.5,53.7,30.28,North,6,0.0,2.0,68,0.00,,---,0.00,VWS V14.01,2013-12-13 18:03:00,
2013-12-13 13:08:00,64.5,53.3,30.28,NW,315,1.0,2.0,67,0.00,,---,0.00,VWS V14.01,2013-12-13 18:08:00,
2013-12-13 13:13:00,64.5,53.7,30.28,NE,38,0.0,3.0,68,0.00,,---,0.00,VWS V14.01,2013-12-13 18:13:00,
2013-12-13 13:18:00,64.7,53.5,30.27,NW,311,1.0,3.0,67,0.02,,---,0.02,VWS V14.01,2013-12-13 18:18:00,
2013-12-13 13:23:00,65.3,54.1,30.27,NW,325,1.0,3.0,67,0.02,,---,0.02,VWS V14.01,2013-12-13 18:23:00,
2013-12-13 13:28:00,65.3,53.7,30.27,North,6,2.0,3.0,66,0.02,,---,0.02,VWS V14.01,2013-12-13 18:28:00,
2013-12-13 13:30:00,67.6,55.0,30.23,NE,42,2.0,5.0,64,0.02,,---,0.02,VWS V14.01,2013-12-13 18:30:00,
2013-12-13 13:33:00,65.5,53.8,30.26,North,10,0.0,1.0,66,0.02,,---,0.02,VWS V14.01,2013-12-13 18:33:00,
2013-12-13 13:38:00,66.0,54.7,30.26,NNE,16,1.0,2.0,67,0.02,,---,0.02,VWS V14.01,2013-12-13 18:38:00,
2013-12-13 13:43:00,66.3,54.6,30.26,NNW,340,2.0,2.0,66,0.02,,---,0.02,VWS V14.01,2013-12-13 18:43:00,
2013-12-13 13:48:00,65.8,54.5,30.25,East,82,0.0,2.0,67,0.02,,---,0.02,VWS V14.01,2013-12-13 18:48:00,
2013-12-13 13:53:00,66.1,54.0,30.25,North,357,0.0,3.0,65,0.02,,---,0.02,VWS V14.01,2013-12-13 18:53:00,
2013-12-13 13:58:00,66.1,54.0,30.25,NE,49,1.0,3.0,65,0.02,,---,0.02,VWS V14.01,2013-12-13 18:58:00,
2013-12-13 14:00:00,65.5,55.5,30.22,NE,47,0.0,6.0,70,0.00,,---,0.02,VWS V14.01,2013-12-13 19:00:00,
2013-12-13 14:03:00,66.3,54.2,30.25,NW,311,2.0,5.0,65,0.02,,---,0.02,VWS V14.01,2013-12-13 19:03:00,
2013-12-13 14:08:00,66.3,54.2,30.25,North,7,2.0,5.0,65,0.02,,---,0.02,VWS V14.01,2013-12-13 19:08:00,
2013-12-13 14:13:00,66.4,54.7,30.25,NNW,347,1.0,5.0,66,0.02,,---,0.02,VWS V14.01,2013-12-13 19:13:00,
2013-12-13 14:18:00,66.8,54.7,30.23,NE,47,2.0,5.0,65,0.02,,---,0.02,VWS V14.01,2013-12-13 19:18:00,
2013-12-13 14:23:00,67.1,55.0,30.23,NE,41,2.0,5.0,65,0.02,,---,0.02,VWS V14.01,2013-12-13 19:23:00,
2013-12-13 14:28:00,67.3,55.2,30.23,North,7,0.0,5.0,65,0.02,,---,0.02,VWS V14.01,2013-12-13 19:28:00,
2013-12-13 14:30:00,64.3,55.5,30.22,North,0,0.0,6.0,73,0.00,,---,0.02,VWS V14.01,2013-12-13 19:30:00,
2013-12-13 14:33:00,67.6,54.6,30.23,NNW,328,3.0,3.0,63,0.00,,---,0.02,VWS V14.01,2013-12-13 19:33:00,
2013-12-13 14:38:00,67.4,54.4,30.23,NE,52,1.0,6.0,63,0.00,,---,0.02,VWS V14.01,2013-12-13 19:38:00,
2013-12-13 14:43:00,67.1,55.0,30.23,North,0,0.0,6.0,65,0.00,,---,0.02,VWS V14.01,2013-12-13 19:43:00,
2013-12-13 14:48:00,66.3,54.6,30.22,North,7,1.0,6.0,66,0.00,,---,0.02,VWS V14.01,2013-12-13 19:48:00,
2013-12-13 14:53:00,65.6,54.8,30.22,NNE,18,1.0,6.0,68,0.00,,---,0.02,VWS V14.01,2013-12-13 19:53:00,
2013-12-13 14:58:00,65.3,54.9,30.22,ENE,65,0.0,6.0,69,0.00,,---,0.02,VWS V14.01,2013-12-13 19:58:00,
2013-12-13 15:00:00,64.0,55.9,30.21,NNE,14,0.0,2.0,75,0.00,,---,0.02,VWS V14.01,2013-12-13 20:00:00,
2013-12-13 15:03:00,65.8,55.0,30.22,NNE,16,1.0,3.0,68,0.00,,---,0.02,VWS V14.01,2013-12-13 20:03:00,
2013-12-13 15:08:00,65.5,55.5,30.22,North,1,0.0,6.0,70,0.00,,---,0.02,VWS V14.01,2013-12-13 20:08:00,
2013-12-13 15:13:00,65.2,55.2,30.22,North,1,0.0,6.0,70,0.00,,---,0.02,VWS V14.01,2013-12-13 20:13:00,
2013-12-13 15:18:00,64.7,55.1,30.22,NE,45,1.0,6.0,71,0.00,,---,0.02,VWS V14.01,2013-12-13 20:18:00,
2013-12-13 15:23:00,64.5,54.9,30.22,NE,45,1.0,6.0,71,0.00,,---,0.02,VWS V14.01,2013-12-13 20:23:00,
2013-12-13 15:28:00,64.3,55.5,30.22,North,0,0.0,6.0,73,0.00,,---,0.02,VWS V14.01,2013-12-13 20:28:00,
2013-12-13 15:30:00,63.9,55.8,30.21,North,357,0.0,2.0,75,0.00,,---,0.02,VWS V14.01,2013-12-13 20:30:00,
2013-12-13 15:33:00,64.3,55.1,30.22,North,357,0.0,1.0,72,0.00,,---,0.02,VWS V14.01,2013-12-13 20:33:00,
2013-12-13 15:38:00,64.2,55.4,30.22,WNW,288,1.0,2.0,73,0.00,,---,0.02,VWS V14.01,2013-12-13 20:38:00,
2013-12-13 15:43:00,64.2,55.8,30.22,WNW,289,0.0,2.0,74,0.00,,---,0.02,VWS V14.01,2013-12-13 20:43:00,
2013-12-13 15:48:00,64.2,55.8,30.20,North,4,1.0,2.0,74,0.00,,---,0.02,VWS V14.01,2013-12-13 20:48:00,
2013-12-13 15:53:00,64.0,55.6,30.20,North,4,0.0,2.0,74,0.00,,---,0.02,VWS V14.01,2013-12-13 20:53:00,
2013-12-13 15:58:00,64.0,55.9,30.20,East,79,0.0,2.0,75,0.00,,---,0.02,VWS V14.01,2013-12-13 20:58:00,
2013-12-13 16:00:00,62.4,55.8,30.21,North,359,0.0,1.0,79,0.00,,---,0.02,VWS V14.01,2013-12-13 21:00:00,
2013-12-13 16:03:00,64.0,55.9,30.21,NNE,13,0.0,1.0,75,0.00,,---,0.02,VWS V14.01,2013-12-13 21:03:00,
2013-12-13 16:08:00,64.0,55.9,30.21,NNE,13,1.0,1.0,75,0.00,,---,0.02,VWS V14.01,2013-12-13 21:08:00,
2013-12-13 16:13:00,64.0,55.6,30.21,North,4,1.0,2.0,74,0.00,,---,0.02,VWS V14.01,2013-12-13 21:13:00,
2013-12-13 16:18:00,64.2,55.8,30.21,North,4,0.0,2.0,74,0.00,,---,0.02,VWS V14.01,2013-12-13 21:18:00,
2013-12-13 16:23:00,64.0,55.6,30.21,NW,305,0.0,2.0,74,0.00,,---,0.02,VWS V14.01,2013-12-13 21:23:00,
2013-12-13 16:28:00,63.9,55.8,30.21,North,357,0.0,2.0,75,0.00,,---,0.02,VWS V14.01,2013-12-13 21:28:00,
2013-12-13 16:30:00,61.5,55.6,30.21,North,0,0.0,1.0,81,0.00,,---,0.02,VWS V14.01,2013-12-13 21:30:00,
2013-12-13 16:33:00,63.9,55.8,30.21,North,357,0.0,0.0,75,0.00,,---,0.02,VWS V14.01,2013-12-13 21:33:00,
2013-12-13 16:38:00,63.7,56.0,30.21,North,357,0.0,0.0,76,0.00,,---,0.02,VWS V14.01,2013-12-13 21:38:00,
2013-12-13 16:43:00,63.2,55.5,30.21,North,357,0.0,0.0,76,0.00,,---,0.02,VWS V14.01,2013-12-13 21:43:00,
2013-12-13 16:48:00,63.1,55.8,30.21,North,357,0.0,0.0,77,0.00,,---,0.02,VWS V14.01,2013-12-13 21:48:00,
2013-12-13 16:53:00,62.7,55.8,30.21,North,359,0.0,1.0,78,0.00,,---,0.02,VWS V14.01,2013-12-13 21:53:00,
2013-12-13 16:57:00,62.4,55.8,30.21,North,357,0.0,1.0,79,0.00,,---,0.02,VWS V14.01,2013-12-13 21:57:00,
2013-12-13 17:00:00,59.9,55.1,30.21,North,0,0.0,0.0,84,0.00,,---,0.02,VWS V14.01,2013-12-13 22:00:00,
2013-12-13 17:02:00,62.3,55.7,30.21,North,357,0.0,0.0,79,0.00,,---,0.02,VWS V14.01,2013-12-13 22:02:00,
2013-12-13 17:07:00,62.1,55.9,30.21,North,359,1.0,1.0,80,0.00,,---,0.02,VWS V14.01,2013-12-13 22:07:00,
2013-12-13 17:12:00,62.0,55.8,30.21,North,359,0.0,1.0,80,0.00,,---,0.02,VWS V14.01,2013-12-13 22:12:00,
2013-12-13 17:17:00,62.0,55.8,30.22,North,0,0.0,1.0,80,0.00,,---,0.02,VWS V14.01,2013-12-13 22:17:00,
2013-12-13 17:22:00,61.8,55.6,30.22,North,0,0.0,1.0,80,0.00,,---,0.02,VWS V14.01,2013-12-13 22:22:00,
2013-12-13 17:27:00,61.6,55.7,30.22,North,0,0.0,1.0,81,0.00,,---,0.02,VWS V14.01,2013-12-13 22:27:00,
2013-12-13 17:30:00,58.1,54.3,30.20,North,0,0.0,0.0,87,0.00,,---,0.02,VWS V14.01,2013-12-13 22:30:00,
2013-12-13 17:32:00,61.3,55.4,30.21,North,0,0.0,0.0,81,0.00,,---,0.02,VWS V14.01,2013-12-13 22:32:00,
2013-12-13 17:37:00,61.2,55.3,30.21,North,0,0.0,0.0,81,0.00,,---,0.02,VWS V14.01,2013-12-13 22:37:00,
2013-12-13 17:42:00,60.7,55.2,30.21,North,0,0.0,0.0,82,0.00,,---,0.02,VWS V14.01,2013-12-13 22:42:00,
2013-12-13 17:47:00,60.5,55.3,30.21,North,0,0.0,0.0,83,0.00,,---,0.02,VWS V14.01,2013-12-13 22:47:00,
2013-12-13 17:52:00,60.2,55.0,30.21,North,0,0.0,0.0,83,0.00,,---,0.02,VWS V14.01,2013-12-13 22:52:00,
2013-12-13 17:57:00,59.9,55.1,30.21,North,0,0.0,0.0,84,0.00,,---,0.02,VWS V14.01,2013-12-13 22:57:00,
2013-12-13 18:00:00,59.9,55.1,30.21,North,0,0.0,0.0,84,0.00,,---,0.02,VWS V14.01,2013-12-13 23:00:00,
2013-12-13 18:02:00,59.6,54.8,30.21,North,0,0.0,0.0,84,0.00,,---,0.02,VWS V14.01,2013-12-13 23:02:00,
2013-12-13 18:07:00,59.5,55.0,30.21,North,0,0.0,0.0,85,0.00,,---,0.02,VWS V14.01,2013-12-13 23:07:00,
2013-12-13 18:12:00,59.2,54.7,30.21,North,0,0.0,0.0,85,0.00,,---,0.02,VWS V14.01,2013-12-13 23:12:00,
2013-12-13 18:17:00,58.9,54.7,30.20,North,0,0.0,0.0,86,0.00,,---,0.02,VWS V14.01,2013-12-13 23:17:00,
2013-12-13 18:22:00,58.6,54.4,30.20,North,0,0.0,0.0,86,0.00,,---,0.02,VWS V14.01,2013-12-13 23:22:00,
2013-12-13 18:27:00,58.3,54.5,30.20,North,0,0.0,0.0,87,0.00,,---,0.02,VWS V14.01,2013-12-13 23:27:00,
2013-12-13 18:30:00,56.6,54.3,30.19,North,0,0.0,0.0,92,0.00,,---,0.02,VWS V14.01,2013-12-13 23:30:00,
2013-12-13 18:32:00,58.0,54.5,30.20,North,0,0.0,0.0,88,0.00,,---,0.02,VWS V14.01,2013-12-13 23:32:00,
2013-12-13 18:37:00,57.8,54.3,30.20,North,0,0.0,0.0,88,0.00,,---,0.02,VWS V14.01,2013-12-13 23:37:00,
2013-12-13 18:42:00,57.6,54.1,30.20,North,0,0.0,0.0,88,0.00,,---,0.02,VWS V14.01,2013-12-13 23:42:00,
2013-12-13 18:47:00,57.5,54.3,30.20,North,0,0.0,0.0,89,0.00,,---,0.02,VWS V14.01,2013-12-13 23:47:00,
2013-12-13 18:52:00,57.3,54.4,30.20,North,0,0.0,0.0,90,0.00,,---,0.02,VWS V14.01,2013-12-13 23:52:00,
2013-12-13 18:57:00,57.2,54.3,30.20,North,0,0.0,0.0,90,0.00,,---,0.02,VWS V14.01,2013-12-13 23:57:00,
2013-12-13 19:02:00,57.2,54.3,30.20,North,0,0.0,0.0,90,0.00,,---,0.02,VWS V14.01,2013-12-14 00:02:00,
2013-12-13 19:07:00,56.9,54.0,30.20,North,0,0.0,0.0,90,0.00,,---,0.02,VWS V14.01,2013-12-14 00:07:00,
2013-12-13 19:12:00,56.9,54.3,30.20,North,0,0.0,0.0,91,0.00,,---,0.02,VWS V14.01,2013-12-14 00:12:00,
2013-12-13 19:17:00,56.7,54.1,30.20,North,0,0.0,0.0,91,0.00,,---,0.02,VWS V14.01,2013-12-14 00:17:00,
2013-12-13 19:22:00,56.6,54.0,30.20,North,0,0.0,0.0,91,0.00,,---,0.02,VWS V14.01,2013-12-14 00:22:00,
2013-12-13 19:27:00,56.6,54.3,30.20,North,0,0.0,0.0,92,0.00,,---,0.02,VWS V14.01,2013-12-14 00:27:00,
2013-12-13 19:30:00,56.2,54.5,30.20,North,0,0.0,0.0,94,0.00,,---,0.02,VWS V14.01,2013-12-14 00:30:00,
2013-12-13 19:32:00,56.5,54.2,30.19,North,0,0.0,0.0,92,0.00,,---,0.02,VWS V14.01,2013-12-14 00:32:00,
2013-12-13 19:37:00,56.5,54.2,30.19,North,0,0.0,0.0,92,0.00,,---,0.02,VWS V14.01,2013-12-14 00:37:00,
2013-12-13 19:42:00,56.5,54.2,30.19,North,0,0.0,0.0,92,0.00,,---,0.02,VWS V14.01,2013-12-14 00:42:00,
2013-12-13 19:47:00,56.3,54.3,30.20,North,0,0.0,0.0,93,0.00,,---,0.02,VWS V14.01,2013-12-14 00:47:00,
2013-12-13 19:52:00,56.3,54.3,30.20,North,0,0.0,0.0,93,0.00,,---,0.02,VWS V14.01,2013-12-14 00:52:00,
2013-12-13 19:57:00,56.5,54.5,30.20,North,0,0.0,0.0,93,0.00,,---,0.02,VWS V14.01,2013-12-14 00:57:00,
2013-12-13 20:00:00,55.7,54.3,30.20,North,0,0.0,0.0,95,0.00,,---,0.02,VWS V14.01,2013-12-14 01:00:00,
2013-12-13 20:02:00,56.5,54.8,30.20,North,0,0.0,0.0,94,0.00,,---,0.02,VWS V14.01,2013-12-14 01:02:00,
2013-12-13 20:07:00,56.5,54.8,30.20,North,0,0.0,0.0,94,0.00,,---,0.02,VWS V14.01,2013-12-14 01:07:00,
2013-12-13 20:12:00,56.5,54.8,30.20,North,0,0.0,0.0,94,0.00,,---,0.02,VWS V14.01,2013-12-14 01:12:00,
2013-12-13 20:13:00,56.5,54.8,30.20,North,0,0.0,0.0,94,0.00,,---,0.02,VWS V14.01,2013-12-14 01:13:00,
2013-12-13 20:18:00,56.3,54.6,30.19,North,0,0.0,0.0,94,0.00,,---,0.02,VWS V14.01,2013-12-14 01:18:00,
2013-12-13 20:23:00,56.3,54.6,30.19,North,0,0.0,0.0,94,0.00,,---,0.02,VWS V14.01,2013-12-14 01:23:00,
2013-12-13 20:28:00,56.3,54.6,30.19,North,0,0.0,0.0,94,0.00,,---,0.02,VWS V14.01,2013-12-14 01:28:00,
2013-12-13 20:30:00,55.4,54.3,30.20,North,353,0.0,0.0,96,0.00,,---,0.02,VWS V14.01,2013-12-14 01:30:00,
2013-12-13 20:33:00,56.0,54.3,30.20,North,0,0.0,0.0,94,0.00,,---,0.02,VWS V14.01,2013-12-14 01:33:00,
2013-12-13 20:38:00,56.0,54.6,30.20,North,0,0.0,0.0,95,0.00,,---,0.02,VWS V14.01,2013-12-14 01:38:00,
2013-12-13 20:43:00,55.9,54.5,30.20,North,0,0.0,0.0,95,0.00,,---,0.02,VWS V14.01,2013-12-14 01:43:00,
2013-12-13 20:48:00,55.9,54.5,30.20,North,0,0.0,0.0,95,0.00,,---,0.02,VWS V14.01,2013-12-14 01:48:00,
2013-12-13 20:53:00,55.7,54.3,30.20,North,0,0.0,0.0,95,0.00,,---,0.02,VWS V14.01,2013-12-14 01:53:00,
2013-12-13 20:58:00,55.7,54.3,30.20,North,0,0.0,0.0,95,0.00,,---,0.02,VWS V14.01,2013-12-14 01:58:00,
2013-12-13 21:00:00,54.8,53.7,30.19,North,353,0.0,0.0,96,0.00,,---,0.02,VWS V14.01,2013-12-14 02:00:00,
2013-12-13 21:03:00,56.0,54.9,30.20,North,353,0.0,0.0,96,0.00,,---,0.02,VWS V14.01,2013-12-14 02:03:00,
2013-12-13 21:08:00,55.9,54.8,30.20,North,353,0.0,0.0,96,0.00,,---,0.02,VWS V14.01,2013-12-14 02:08:00,
2013-12-13 21:13:00,55.7,54.6,30.20,North,353,0.0,0.0,96,0.00,,---,0.02,VWS V14.01,2013-12-14 02:13:00,
2013-12-13 21:18:00,55.6,54.5,30.20,North,353,0.0,0.0,96,0.00,,---,0.02,VWS V14.01,2013-12-14 02:18:00,
2013-12-13 21:23:00,55.6,54.5,30.20,North,353,0.0,0.0,96,0.00,,---,0.02,VWS V14.01,2013-12-14 02:23:00,
2013-12-13 21:28:00,55.4,54.3,30.20,North,353,0.0,0.0,96,0.00,,---,0.02,VWS V14.01,2013-12-14 02:28:00,
2013-12-13 21:30:00,54.1,53.3,30.18,North,353,0.0,0.0,97,0.00,,---,0.02,VWS V14.01,2013-12-14 02:30:00,
2013-12-13 21:33:00,55.3,54.2,30.20,North,353,0.0,0.0,96,0.00,,---,0.02,VWS V14.01,2013-12-14 02:33:00,
2013-12-13 21:38:00,55.3,54.2,30.20,North,353,0.0,0.0,96,0.00,,---,0.02,VWS V14.01,2013-12-14 02:38:00,
2013-12-13 21:43:00,55.1,54.0,30.20,North,353,0.0,0.0,96,0.00,,---,0.02,VWS V14.01,2013-12-14 02:43:00,
2013-12-13 21:48:00,55.1,54.0,30.19,North,353,0.0,0.0,96,0.00,,---,0.02,VWS V14.01,2013-12-14 02:48:00,
2013-12-13 21:53:00,55.0,53.9,30.19,North,353,0.0,0.0,96,0.00,,---,0.02,VWS V14.01,2013-12-14 02:53:00,
2013-12-13 21:58:00,54.8,53.7,30.19,North,353,0.0,0.0,96,0.00,,---,0.02,VWS V14.01,2013-12-14 02:58:00,
2013-12-13 22:00:00,54.1,53.5,30.17,North,353,0.0,0.0,98,0.00,,---,0.02,VWS V14.01,2013-12-14 03:00:00,
2013-12-13 22:03:00,54.7,53.6,30.19,North,353,0.0,0.0,96,0.00,,---,0.02,VWS V14.01,2013-12-14 03:03:00,
2013-12-13 22:08:00,54.7,53.6,30.19,North,353,0.0,0.0,96,0.00,,---,0.02,VWS V14.01,2013-12-14 03:08:00,
2013-12-13 22:13:00,54.5,53.7,30.19,North,353,0.0,0.0,97,0.00,,---,0.02,VWS V14.01,2013-12-14 03:13:00,
2013-12-13 22:18:00,54.4,53.6,30.19,North,353,0.0,0.0,97,0.00,,---,0.02,VWS V14.01,2013-12-14 03:18:00,
2013-12-13 22:23:00,54.2,53.4,30.19,North,353,0.0,0.0,97,0.00,,---,0.02,VWS V14.01,2013-12-14 03:23:00,
2013-12-13 22:28:00,54.1,53.3,30.19,North,353,0.0,0.0,97,0.00,,---,0.02,VWS V14.01,2013-12-14 03:28:00,
2013-12-13 22:30:00,54.7,54.2,30.17,North,353,0.0,0.0,98,0.00,,---,0.02,VWS V14.01,2013-12-14 03:30:00,
2013-12-13 22:33:00,54.1,53.3,30.18,North,353,0.0,0.0,97,0.00,,---,0.02,VWS V14.01,2013-12-14 03:33:00,
2013-12-13 22:38:00,53.9,53.1,30.18,North,353,0.0,0.0,97,0.00,,---,0.02,VWS V14.01,2013-12-14 03:38:00,
2013-12-13 22:43:00,53.9,53.1,30.18,North,353,0.0,0.0,97,0.00,,---,0.02,VWS V14.01,2013-12-14 03:43:00,
2013-12-13 22:48:00,53.9,53.1,30.17,North,353,0.0,0.0,97,0.00,,---,0.02,VWS V14.01,2013-12-14 03:48:00,
2013-12-13 22:53:00,54.1,53.3,30.17,North,353,0.0,0.0,97,0.00,,---,0.02,VWS V14.01,2013-12-14 03:53:00,
2013-12-13 22:58:00,54.1,53.3,30.17,North,353,0.0,0.0,97,0.00,,---,0.02,VWS V14.01,2013-12-14 03:58:00,
2013-12-13 23:00:00,54.8,54.2,30.15,North,353,0.0,0.0,98,0.00,,---,0.02,VWS V14.01,2013-12-14 04:00:00,
2013-12-13 23:03:00,54.2,53.7,30.17,North,353,0.0,0.0,98,0.00,,---,0.02,VWS V14.01,2013-12-14 04:03:00,
2013-12-13 23:08:00,54.5,54.0,30.17,North,353,0.0,0.0,98,0.00,,---,0.02,VWS V14.01,2013-12-14 04:08:00,
2013-12-13 23:13:00,54.7,54.2,30.17,North,353,0.0,0.0,98,0.00,,---,0.02,VWS V14.01,2013-12-14 04:13:00,
2013-12-13 23:18:00,54.7,54.2,30.17,North,353,0.0,0.0,98,0.00,,---,0.02,VWS V14.01,2013-12-14 04:18:00,
2013-12-13 23:23:00,54.7,54.2,30.17,North,353,0.0,0.0,98,0.00,,---,0.02,VWS V14.01,2013-12-14 04:23:00,
2013-12-13 23:28:00,54.7,54.2,30.17,North,353,0.0,0.0,98,0.00,,---,0.02,VWS V14.01,2013-12-14 04:28:00,
2013-12-13 23:30:00,55.0,54.7,30.14,North,353,0.0,0.0,99,0.00,,---,0.00,VWS V14.01,2013-12-14 04:30:00,
2013-12-13 23:33:00,54.8,54.2,30.17,North,353,0.0,0.0,98,0.00,,---,0.02,VWS V14.01,2013-12-14 04:33:00,
2013-12-13 23:38:00,54.8,54.2,30.17,North,353,0.0,0.0,98,0.00,,---,0.02,VWS V14.01,2013-12-14 04:38:00,
2013-12-13 23:43:00,54.8,54.2,30.17,North,353,0.0,0.0,98,0.00,,---,0.02,VWS V14.01,2013-12-14 04:43:00,
2013-12-13 23:47:00,55.0,54.5,30.16,North,353,0.0,0.0,98,0.00,,---,0.02,VWS V14.01,2013-12-14 04:47:00,
2013-12-13 23:52:00,55.0,54.5,30.16,North,353,0.0,0.0,98,0.00,,---,0.02,VWS V14.01,2013-12-14 04:52:00,
2013-12-13 23:57:00,54.8,54.2,30.16,North,353,0.0,0.0,98,0.00,,---,0.02,VWS V14.01,2013-12-14 04:57:00,